Time,TemperatureF,DewpointF,PressureIn,WindDirection,WindDirectionDegrees,WindSpeedMPH,WindSpeedGustMPH,Humidity,HourlyPrecipIn,Conditions,Clouds,dailyrainin,SolarRadiationWatts/m^2,SoftwareType,DateUTC
2013-02-13 00:01:00,35.8,33.0,29.89,NE,41,0.0,0.0,90,0.02,,,0.12,0,weatherlink.com 1.10,2013-02-12 23:01:00,
2013-02-13 00:16:00,35.8,33.0,29.89,NE,41,0.0,0.0,90,0.03,,,0.13,0,weatherlink.com 1.10,2013-02-12 23:16:00,
2013-02-13 00:31:00,35.8,34.0,29.89,NE,42,0.0,0.0,91,0.04,,,0.14,0,weatherlink.com 1.10,2013-02-12 23:31:00,
2013-02-13 00:46:00,35.9,34.0,29.89,NE,41,0.0,1.0,91,0.03,,,0.00,0,weatherlink.com 1.10,2013-02-12 23:46:00,
2013-02-13 01:01:00,35.9,34.0,29.89,NE,41,0.0,1.0,91,0.04,,,0.02,0,weatherlink.com 1.10,2013-02-13 00:01:00,
2013-02-13 01:16:00,35.9,34.0,29.90,NE,42,0.0,1.0,91,0.03,,,0.02,0,weatherlink.com 1.10,2013-02-13 00:16:00,
2013-02-13 01:31:00,36.1,34.0,29.90,NE,41,0.0,1.0,91,0.02,,,0.02,0,weatherlink.com 1.10,2013-02-13 00:31:00,
2013-02-13 01:46:00,36.2,34.0,29.90,NE,42,0.0,1.0,91,0.02,,,0.02,0,weatherlink.com 1.10,2013-02-13 00:46:00,
2013-02-13 02:01:00,36.4,34.0,29.90,NE,42,0.0,1.0,91,0.01,,,0.02,0,weatherlink.com 1.10,2013-02-13 01:01:00,
2013-02-13 02:16:00,36.5,34.0,29.90,NE,42,0.0,1.0,91,0.02,,,0.03,0,weatherlink.com 1.10,2013-02-13 01:16:00,
2013-02-13 02:31:00,36.5,34.0,29.90,NE,40,0.0,1.0,91,0.02,,,0.03,0,weatherlink.com 1.10,2013-02-13 01:31:00,
2013-02-13 02:46:00,36.6,34.0,29.90,NE,42,0.0,0.0,91,0.01,,,0.03,0,weatherlink.com 1.10,2013-02-13 01:46:00,
2013-02-13 03:01:00,36.7,34.0,29.90,NE,41,0.0,1.0,90,0.01,,,0.03,0,weatherlink.com 1.10,2013-02-13 02:01:00,
2013-02-13 03:16:00,36.8,34.0,29.90,NE,41,0.0,0.0,90,0.00,,,0.03,0,weatherlink.com 1.10,2013-02-13 02:16:00,
2013-02-13 03:31:00,36.9,34.0,29.90,NE,42,0.0,0.0,90,0.01,,,0.04,0,weatherlink.com 1.10,2013-02-13 02:31:00,
2013-02-13 03:46:00,36.9,34.0,29.90,NE,42,0.0,0.0,89,0.01,,,0.04,0,weatherlink.com 1.10,2013-02-13 02:46:00,
2013-02-13 04:01:00,36.9,34.0,29.91,NE,41,0.0,0.0,89,0.02,,,0.05,0,weatherlink.com 1.10,2013-02-13 03:01:00,
2013-02-13 04:16:00,36.9,34.0,29.91,NE,41,0.0,1.0,89,0.02,,,0.05,0,weatherlink.com 1.10,2013-02-13 03:16:00,
2013-02-13 04:31:00,37.0,34.0,29.91,NE,42,0.0,0.0,89,0.01,,,0.05,0,weatherlink.com 1.10,2013-02-13 03:31:00,
2013-02-13 04:46:00,36.9,34.0,29.91,NE,42,0.0,1.0,89,0.02,,,0.06,0,weatherlink.com 1.10,2013-02-13 03:46:00,
2013-02-13 05:01:00,37.0,34.0,29.91,NE,41,0.0,0.0,89,0.01,,,0.06,0,weatherlink.com 1.10,2013-02-13 04:01:00,
2013-02-13 05:16:00,37.1,34.0,29.91,NE,40,0.0,0.0,89,0.01,,,0.06,0,weatherlink.com 1.10,2013-02-13 04:16:00,
2013-02-13 05:31:00,37.1,34.0,29.91,NE,41,0.0,0.0,89,0.02,,,0.06,0,weatherlink.com 1.10,2013-02-13 04:31:00,
2013-02-13 05:46:00,37.0,34.0,29.92,NE,40,0.0,0.0,89,0.01,,,0.06,0,weatherlink.com 1.10,2013-02-13 04:46:00,
2013-02-13 06:01:00,36.9,34.0,29.93,NE,42,0.0,0.0,89,0.01,,,0.06,0,weatherlink.com 1.10,2013-02-13 05:01:00,
2013-02-13 06:16:00,36.9,34.0,29.93,NE,40,0.0,0.0,89,0.01,,,0.06,0,weatherlink.com 1.10,2013-02-13 05:16:00,
2013-02-13 06:31:00,36.9,34.0,29.93,NE,40,0.0,0.0,89,0.01,,,0.07,0,weatherlink.com 1.10,2013-02-13 05:31:00,
2013-02-13 06:46:00,36.9,34.0,29.93,NE,42,0.0,1.0,89,0.02,,,0.08,0,weatherlink.com 1.10,2013-02-13 05:46:00,
2013-02-13 07:01:00,36.9,34.0,29.94,NE,34,0.0,0.0,89,0.02,,,0.08,0,weatherlink.com 1.10,2013-02-13 06:01:00,
2013-02-13 07:17:00,36.9,34.0,29.94,NE,41,0.0,0.0,90,0.02,,,0.09,5,weatherlink.com 1.10,2013-02-13 06:17:00,
2013-02-13 07:32:00,37.0,34.0,29.95,NE,41,0.0,1.0,90,0.02,,,0.09,14,weatherlink.com 1.10,2013-02-13 06:32:00,
2013-02-13 07:48:00,37.3,35.0,29.95,NE,41,0.0,1.0,90,0.02,,,0.09,42,weatherlink.com 1.10,2013-02-13 06:48:00,
2013-02-13 09:02:00,39.2,36.0,29.97,SSW,209,0.0,1.0,89,0.02,,,0.11,156,weatherlink.com 1.10,2013-02-13 08:02:00,
2013-02-13 09:17:00,40.3,37.0,29.98,SSW,209,0.0,1.0,86,0.02,,,0.12,104,weatherlink.com 1.10,2013-02-13 08:17:00,
2013-02-13 09:32:00,41.9,37.0,29.98,North,360,0.0,3.0,81,0.02,,,0.13,176,weatherlink.com 1.10,2013-02-13 08:32:00,
2013-02-13 09:47:00,42.0,37.0,29.98,SSW,208,0.0,1.0,82,0.02,,,0.13,158,weatherlink.com 1.10,2013-02-13 08:47:00,
2013-02-13 10:02:00,42.9,37.0,29.98,SSW,210,0.0,3.0,80,0.03,,,0.14,169,weatherlink.com 1.10,2013-02-13 09:02:00,
2013-02-13 10:32:00,43.0,37.0,29.98,NNW,346,0.0,4.0,80,0.03,,,0.16,165,weatherlink.com 1.10,2013-02-13 09:32:00,
2013-02-13 11:02:00,43.3,37.0,29.99,North,5,0.0,2.0,79,0.04,,,0.18,146,weatherlink.com 1.10,2013-02-13 10:02:00,
2013-02-13 11:32:00,43.2,36.0,29.99,NE,39,0.0,1.0,77,0.03,,,0.19,120,weatherlink.com 1.10,2013-02-13 10:32:00,
2013-02-13 11:48:00,43.4,37.0,29.99,North,355,0.0,3.0,77,0.03,,,0.20,135,weatherlink.com 1.10,2013-02-13 10:48:00,
2013-02-13 12:02:00,43.0,36.0,29.99,NE,41,0.0,1.0,77,0.02,,,0.20,91,weatherlink.com 1.10,2013-02-13 11:02:00,
2013-02-13 12:17:00,42.5,36.0,29.99,NE,42,0.0,1.0,78,0.02,,,0.21,105,weatherlink.com 1.10,2013-02-13 11:17:00,
2013-02-13 12:33:00,42.7,36.0,29.99,North,360,0.0,1.0,77,0.03,,,0.22,62,weatherlink.com 1.10,2013-02-13 11:33:00,
2013-02-13 12:48:00,42.3,36.0,29.99,North,355,0.0,1.0,77,0.02,,,0.22,54,weatherlink.com 1.10,2013-02-13 11:48:00,
2013-02-13 13:03:00,42.3,36.0,29.99,North,355,0.0,2.0,78,0.02,,,0.22,62,weatherlink.com 1.10,2013-02-13 12:03:00,
2013-02-13 13:18:00,42.4,36.0,29.99,NNE,32,0.0,2.0,79,0.02,,,0.23,83,weatherlink.com 1.10,2013-02-13 12:18:00,
2013-02-13 13:33:00,42.5,36.0,30.00,NNE,32,1.0,3.0,79,0.02,,,0.24,156,weatherlink.com 1.10,2013-02-13 12:33:00,
2013-02-13 13:48:00,43.0,37.0,29.99,NE,36,0.0,2.0,78,0.02,,,0.24,148,weatherlink.com 1.10,2013-02-13 12:48:00,
2013-02-13 14:03:00,44.2,37.0,29.99,NNE,17,0.0,4.0,77,0.02,,,0.24,190,weatherlink.com 1.10,2013-02-13 13:03:00,
2013-02-13 14:18:00,44.0,37.0,29.99,North,9,0.0,4.0,77,0.02,,,0.24,137,weatherlink.com 1.10,2013-02-13 13:18:00,
2013-02-13 14:33:00,44.7,38.0,29.98,North,5,1.0,4.0,76,0.02,,,0.25,128,weatherlink.com 1.10,2013-02-13 13:33:00,
2013-02-13 14:48:00,44.5,37.0,29.98,SW,231,0.0,2.0,75,0.02,,,0.25,70,weatherlink.com 1.10,2013-02-13 13:48:00,
2013-02-13 15:03:00,44.1,37.0,29.99,SW,232,0.0,1.0,76,0.02,,,0.25,26,weatherlink.com 1.10,2013-02-13 14:03:00,
2013-02-13 15:18:00,43.8,37.0,30.00,SW,232,0.0,0.0,78,0.02,,,0.26,35,weatherlink.com 1.10,2013-02-13 14:18:00,
2013-02-13 15:33:00,43.3,37.0,30.00,North,360,0.0,0.0,79,0.01,,,0.26,39,weatherlink.com 1.10,2013-02-13 14:33:00,
2013-02-13 15:47:00,42.7,37.0,30.00,North,360,0.0,1.0,80,0.01,,,0.26,30,weatherlink.com 1.10,2013-02-13 14:47:00,
2013-02-13 16:32:00,41.2,36.0,30.00,South,185,0.0,0.0,83,0.01,,,0.27,12,weatherlink.com 1.10,2013-02-13 15:32:00,
2013-02-13 16:48:00,40.8,36.0,29.99,South,185,0.0,1.0,84,0.01,,,0.27,5,weatherlink.com 1.10,2013-02-13 15:48:00,
2013-02-13 17:17:00,39.7,36.0,29.99,South,184,0.0,2.0,85,0.00,,,0.27,0,weatherlink.com 1.10,2013-02-13 16:17:00,
2013-02-13 17:32:00,39.3,35.0,30.00,South,185,0.0,1.0,85,0.00,,,0.27,0,weatherlink.com 1.10,2013-02-13 16:32:00,
2013-02-13 18:02:00,38.8,35.0,30.00,South,184,0.0,1.0,86,0.00,,,0.27,0,weatherlink.com 1.10,2013-02-13 17:02:00,
2013-02-13 18:17:00,39.0,35.0,30.00,North,360,0.0,3.0,86,0.00,,,0.27,0,weatherlink.com 1.10,2013-02-13 17:17:00,
2013-02-13 19:02:00,40.4,35.0,30.00,NW,304,1.0,2.0,82,0.00,,,0.27,0,weatherlink.com 1.10,2013-02-13 18:02:00,
2013-02-13 19:18:00,40.8,35.0,30.00,NW,305,0.0,2.0,81,0.00,,,0.27,0,weatherlink.com 1.10,2013-02-13 18:18:00,
2013-02-13 19:33:00,41.8,35.0,30.01,North,360,1.0,3.0,78,0.01,,,0.28,0,weatherlink.com 1.10,2013-02-13 18:33:00,
2013-02-13 19:48:00,41.8,35.0,30.02,SW,234,1.0,3.0,77,0.01,,,0.28,0,weatherlink.com 1.10,2013-02-13 18:48:00,
2013-02-13 20:03:00,42.2,35.0,30.01,SE,144,0.0,4.0,76,0.01,,,0.28,0,weatherlink.com 1.10,2013-02-13 19:03:00,
2013-02-13 20:19:00,42.4,35.0,30.02,North,355,6.0,6.0,75,0.01,,,0.28,0,weatherlink.com 1.10,2013-02-13 19:19:00,
2013-02-13 20:48:00,42.5,35.0,30.02,North,9,3.0,4.0,75,0.00,,,0.28,0,weatherlink.com 1.10,2013-02-13 19:48:00,
2013-02-13 21:03:00,43.0,35.0,30.01,SE,127,1.0,5.0,74,0.00,,,0.28,0,weatherlink.com 1.10,2013-02-13 20:03:00,
2013-02-13 21:18:00,43.4,35.0,30.02,NNE,13,2.0,4.0,73,0.00,,,0.28,0,weatherlink.com 1.10,2013-02-13 20:18:00,
2013-02-13 21:33:00,43.4,35.0,30.02,NNE,31,2.0,3.0,73,0.00,,,0.28,0,weatherlink.com 1.10,2013-02-13 20:33:00,
2013-02-13 21:48:00,42.2,35.0,30.02,North,9,3.0,7.0,75,0.01,,,0.28,0,weatherlink.com 1.10,2013-02-13 20:48:00,
2013-02-13 22:03:00,41.0,35.0,30.02,NNW,346,0.0,4.0,78,0.01,,,0.28,0,weatherlink.com 1.10,2013-02-13 21:03:00,
2013-02-13 22:18:00,40.0,34.0,30.03,WSW,246,0.0,4.0,79,0.01,,,0.28,0,weatherlink.com 1.10,2013-02-13 21:18:00,
2013-02-13 22:33:00,40.8,35.0,30.03,NW,304,0.0,3.0,81,0.01,,,0.28,0,weatherlink.com 1.10,2013-02-13 21:33:00,
2013-02-13 22:48:00,42.7,36.0,30.03,NNW,340,2.0,4.0,76,0.00,,,0.28,0,weatherlink.com 1.10,2013-02-13 21:48:00,
2013-02-13 23:03:00,42.7,35.0,30.03,North,360,0.0,5.0,75,0.00,,,0.28,0,weatherlink.com 1.10,2013-02-13 22:03:00,
2013-02-13 23:18:00,43.2,36.0,30.04,NW,319,0.0,5.0,75,0.00,,,0.28,0,weatherlink.com 1.10,2013-02-13 22:18:00,
2013-02-13 23:33:00,43.4,36.0,30.04,WSW,248,2.0,6.0,74,0.00,,,0.28,0,weatherlink.com 1.10,2013-02-13 22:33:00,
2013-02-13 23:48:00,42.8,35.0,30.04,North,355,2.0,4.0,75,0.00,,,0.28,0,weatherlink.com 1.10,2013-02-13 22:48:00,